Home   Weather   France   Ajaccio   Past weeks
Flag for France

Past Weather in Ajaccio, Corse, France — Yesterday and Last 2 Weeks

Currently: 48 °F. Clear. (Weather station: Ajaccio Airport, France). See more current weather

Past Weather in Ajaccio — Graph

°F

Ajaccio Temperature Yesterday

Maximum temperature yesterday: 64 °F (at 12:30 pm)
Minimum temperature yesterday: 50 °F (at 11:00 pm)
Average temperature yesterday: 59 °F

High & Low Weather Summary for the Past Weeks

 TemperatureHumidityPressure
High66 °F (Mar 24, 1:30 pm)94% (Mar 20, 9:30 pm)30.30 "Hg (Mar 20, 9:30 pm)
Low41 °F (Mar 16, 6:00 am)37% (Mar 16, 4:30 pm)29.74 "Hg (Mar 14, 7:00 am)
Average55 °F72%30.02 "Hg
* Reported Mar 13 9:00 pm — Mar 28 10:00 pm, Ajaccio. Weather by CustomWeather, © 2023

Note: Actual official high and low records may vary slightly from our data, if they occured in-between our weather recording intervals... More about our weather records

Ajaccio Weather History for the Previous 24 Hours

Scroll right to see more
 ConditionsComfort  
Time TempWeatherWind HumidityBarometerVisibility
10:00 pm
Tue, Mar 28
50 °FClear.8 mph62%30.30 "Hg10 mi
9:00 pm52 °FClear.6 mph62%30.30 "Hg10 mi
8:30 pm55 °FClear.2 mph59%30.27 "Hg10 mi
8:00 pm57 °FClear.2 mph59%30.27 "Hg10 mi
7:30 pm59 °FPassing clouds.6 mph55%30.27 "HgN/A
7:00 pm61 °FSunny.6 mph63%30.27 "Hg10 mi
6:30 pm61 °FSunny.9 mph55%30.27 "Hg10 mi
6:00 pm63 °FSunny.9 mph52%30.27 "Hg10 mi
5:30 pm64 °FSunny.8 mph37%30.24 "Hg10 mi
5:00 pm63 °FSunny.10 mph37%30.24 "Hg10 mi
4:30 pm64 °FSunny.12 mph43%30.27 "Hg10 mi
4:00 pm63 °FSunny.12 mph56%30.24 "Hg10 mi
3:30 pm64 °FSunny.12 mph49%30.24 "Hg10 mi
3:00 pm64 °FSunny.12 mph46%30.24 "Hg10 mi
2:30 pm63 °FSunny.13 mph56%30.24 "Hg10 mi
2:00 pm63 °FSunny.12 mph52%30.24 "Hg10 mi
1:30 pm63 °FSunny.10 mph59%30.24 "Hg10 mi
1:00 pm61 °FSunny.7 mph55%30.24 "Hg10 mi
12:30 pm61 °FSunny.10 mph63%30.24 "Hg10 mi
12:00 pm61 °FSunny.12 mph63%30.24 "Hg10 mi
11:30 am61 °FSunny.10 mph63%30.24 "Hg10 mi
11:00 am59 °FPassing clouds.5 mph63%30.21 "HgN/A
10:30 am59 °FSunny.3 mph48%30.21 "Hg10 mi
10:00 am55 °FSunny.6 mph51%30.18 "Hg10 mi
9:00 am48 °FSunny.6 mph62%30.15 "Hg10 mi
8:30 am43 °FSunny.9 mph71%30.15 "Hg10 mi
8:00 am41 °FSunny.7 mph76%30.12 "Hg10 mi
7:30 am41 °FPassing clouds.6 mph76%30.12 "HgN/A
7:00 am41 °FClear.7 mph76%30.09 "Hg10 mi
6:30 am43 °FClear.8 mph71%30.09 "Hg10 mi
6:00 am43 °FPassing clouds.6 mph76%30.07 "HgN/A
5:30 am43 °FClear.6 mph81%30.07 "Hg10 mi
5:00 am43 °FClear.9 mph81%30.07 "Hg10 mi
4:30 am45 °FClear.7 mph81%30.07 "Hg10 mi
4:00 am45 °FClear.7 mph81%30.07 "Hg10 mi
3:00 am45 °FClear.7 mph87%30.04 "Hg10 mi
1:30 am48 °FClear.5 mph82%30.04 "Hg10 mi
1:00 am48 °FClear.7 mph82%30.01 "Hg10 mi
12:30 am48 °FClear.7 mph82%30.01 "Hg10 mi
12:00 am48 °FClear.8 mph82%30.01 "Hg10 mi
11:30 pm
Mon, Mar 27
50 °FClear.9 mph82%29.98 "Hg10 mi
11:00 pm50 °FClear.6 mph82%29.98 "Hg10 mi
Weather by CustomWeather, © 2023

See weather overview